Flag Weather past 2 weeks in Mexico City, Federal District, Mexico

Now
48 °F

Passing clouds.


Feels Like: 47 °F
Forecast: 46 / 70 °F
Wind: 3 mph from East

Location: Mexico City / Licenci

Current Time: Nov 29, 2014 at 2:49:54 AM

Latest Report: Nov 29, 2014 at 1:42 AM


Visibility: 8 mi

Pressure: 30.34 "Hg

Humidity: 76%

Dew point: 41 °F

Location of Mexico CityLocation

Historic Weather in Mexico City — Graph

°F

Mexico City temperature yesterday

Maximum temperature yesterday: 70 °F (at 4:01 PM)
Minimum temperature yesterday: 37 °F (at 6:47 AM)
Average temperature yesterday: 51 °F

Past Weeks' High & Low Weather Summary

 TemperatureHumidityPressure
High79 °F (Nov 23, 2:10 PM)94% (Nov 14, 7:22 PM)30.51 "Hg (Nov 14, 7:22 PM)
Low37 °F (Nov 27, 6:20 AM)7% (Nov 26, 3:45 PM)29.60 "Hg (Nov 23, 2:45 PM)
Average59 °F58%30.22 "Hg
* Reported Nov 14 2:48 AM — Nov 29 1:42 AM, Mexico City, Weather by CustomWeather, © 2014

Note: Actual official high and low records may vary slightly from our data, if they occured in-between our weather recording intervals... More about our weather records

Advertising

Mexico City weather history for previous 24 hours

 ConditionsComfort  
Time TempWeatherWind HumidityBarometerVisibility
1:42 AM
Nov 29
48 °FPassing clouds.3 mph76%30.34 "Hg8 mi
12:45 AM50 °FPassing clouds.7 mph67%30.33 "Hg8 mi
8:47 PM
Nov 28
57 °FPassing clouds.8 mph48%30.04 "Hg10 mi
7:47 PM59 °FClear.13 mph45%30.31 "Hg10 mi
6:45 PM63 °FClear.10 mph42%30.28 "Hg9 mi
6:17 PM63 °FSleet. Overcast.N/A39%30.27 "HgN/A
4:45 PM66 °FPartly sunny.3 mph26%30.25 "Hg6 mi
4:20 PM66 °FSleet. Cloudy.N/A26%30.26 "HgN/A
4:01 PM70 °FScattered clouds.5 mph25%30.26 "Hg6 mi
2:45 PM64 °FPartly sunny.7 mph28%29.94 "Hg6 mi
12:52 PM63 °FPassing clouds.5 mph27%30.33 "Hg7 mi
11:46 AM59 °FSunny.No wind31%30.01 "Hg7 mi
11:32 AM57 °FSunny.3 mph31%30.39 "Hg7 mi
10:46 AM54 °FPassing clouds.3 mph38%30.42 "Hg7 mi
9:42 AM50 °FScattered clouds.5 mph50%30.45 "Hg7 mi
9:21 AM46 °FScattered clouds.3 mph57%30.45 "Hg7 mi
9:10 AM46 °FScattered clouds.5 mph57%30.45 "Hg7 mi
8:45 AM43 °FScattered clouds.6 mph66%30.17 "Hg7 mi
8:21 AM41 °FScattered clouds.8 mph70%30.44 "Hg7 mi
7:21 AM39 °FScattered clouds.7 mph75%30.43 "Hg7 mi
6:47 AM37 °FPassing clouds.6 mph81%30.43 "Hg10 mi
6:22 AM39 °FPassing clouds.7 mph75%30.42 "Hg10 mi
5:52 AM39 °FPassing clouds.5 mph75%30.09 "Hg10 mi
4:47 AM39 °FPassing clouds.5 mph75%30.41 "Hg10 mi
3:49 AM39 °FPassing clouds.6 mph75%30.42 "Hg10 mi
2:51 AM39 °FPassing clouds.5 mph70%30.07 "Hg10 mi
Weather by CustomWeather, © 2014

See weather overviewHow to use our weather pages